Kezdőlap
METAR-TAF:

METAR-TAF

Repülőterek :

Stevens Point Municipal Airport

Stevens Point, Wisconsin, Amerikai Egyesült Államok

földrajzi szélesség: 44-32-42N, földrajzi hosszúság: 089-31-49W, magasság: 338 m

Jelenlegi meteorológiai megfigyelések

A jelentés 27 perccel ezelõtt készült, 13:15 UTC
Északi szél 8 kt
Hőmérséklet 21°C
Páratartalom 73%
Légköri nyomás 1010 hPa
Látótávolság: 16.1 km
Derült ég

METAR: KSTE 161315Z AUTO 01008KT 10SM CLR 21/16 A2982 RMK AO2 T02100155

Idő: 08:42 (13:42 UTC)


TAF: hiányzik

Meteorológiai megfigyelések és előrejelzések több, mint 4000 repülőtéren (METAR és TAF jelentéseket).

A térképen piros és sárga pontok jelzik az elérhető meteorológiai állomásokat.

Mozgassa az egeret a pont fölött, hogy megjelenjen az állomás neve.

Azután kattintson az időjárási megfigyelések és előrejelzések megtekintéséhez.

A térkép megváltoztatása: kattintson a fekete keresztel jelölt zöld gombra ráközelítéshez, a vonallal jelölt zöld gombra távolításhoz, vagy a zöld nyilakra a szomszédos térképek eléréséhez.


METAR-TAF: